User: anonymous   Login
Location: Caltech
(34.1382°N, 118.1253°W)
Time: 06:17:51
(UTC-08:00)
Language:

OAO 1 Rocket - Orbit

View from above orbital plane
View from above orbital plane
View from above satellite
View from above satellite

Ground track
Ground track

The orbit data is extracted from the following two-line orbital elements,

1 02144U 66031B   15024.19769560  .00000261  00000-0  84016-4 0  8195
2 02144 035.0441 006.0026 0007813 039.1389 320.9865 14.42312410561698
Epoch (UTC): 24 January 2015 04:44:40
Eccentricity: 0.0007813
inclination: 35.0441°
perigee height: 745 km
apogee height: 756 km
right ascension of ascending node: 6.0026°
argument of perigee: 39.1389°
revolutions per day: 14.42312410
mean anomaly at epoch: 320.9865°
orbit number at epoch: 56169

The dashed part of the orbit path shows where the satellite is in the earth's shadow,  

DLR